DECAYED

STARLINK-1986, 47582 (Decayed)

Orbit data source: Space-Track

STARLINK-1986, 47582 was a payload satellite owned by SpaceX/Seattle (US) in LEO that was launched on Thu, 04 Feb 2021 UTC via an FALCON 9 launch vehicle from the Air Force Eastern Test Range (AFETR). Payload-class satellites include a variety of spacecraft equipped with specific instruments for various scientific and technological missions. These include communications satellites like Starlink; space stations such as the ISS; scientific satellites like the Hubble; Earth observation satellites from companies like Planet Labs, Umbra, and HawkEye 360; GPS; miniature CubeSats for education and research; and military/defense satellites.

Not visible in the next 10 days
Identifier
47582, 2021-009AL
Orbit
Decayed
Country
Flag of USUS
Related business
Manufacturer
SpaceX/Seattle
Mission
Decayed Commercial Communications
Bus & Motor
STARLINK, Unknown motor
Mass
260 kg wet, ~248 kg dry
Launch date (UTC)
2021-02-04 (5 years ago)
Launch vehicle
FALCON 9
Launch site
Air Force Eastern Test Range (AFETR)
Object type
Payload
Rocket body
Debris
Shape & HBR
Box + 1 Pan, 10.1 m
Radar Cross Section
13.562 m², Large (>1 m²)

Expand to show TLE details & history
Last TLE update: 4 months ago

TLE from 4 months ago
0 STARLINK-1986
1 47582U 21009AL  26043.89652148  .12475324  12432-4  75045-3 0  9994
2 47582  53.0144  51.8159 0001526   6.9068 353.2000 16.41561173278192
Epoch: 2026-02-12T21:30Z
TLE epoch observation values (Epoch: 2026-02-12T21:30:59.455Z)
Latitude
-0°
Longitude
-53.87353°
Altitude
161.588 km
Speed
7.811 km/s
True Right ascension
03h 27m 15s
True Declination
0° 00' 00"
Sunlit
Object was in daylight at epoch
Visualization orbit readout
Latitude
Unknown
Longitude
Unknown
Altitude
Unknown
Speed
Unknown
Apparent Right ascension
Unknown
Apparent Declination
Unknown
Sunlit
N/A
Visualization observer readout
Local Sidereal Time
21:37:54
Azimuth
Unknown
Elevation
Unknown
Doppler factor
Unknown
Orbital elements
Apogee altitude
162.944 km
Perigee altitude
160.948 km
Semi-major axis
6,540.083 km
Eccentricity
0.00015
Inclination
53.0144°
RAAN
51.8159°
Arg. of periapsis
6.9068°
True anomaly
353.19793°
Mean anomaly
353.2°
Eccentric anomaly
353.19896°
Mean motion
4.10363 °/min
Orbital period
87.73 mins
BSTAR
0.00075045
Loading maneuver chart data...
Computing Atmospheric mass density...

Documentation

Showing up to 5 results
|